Location: Antioch
(38.0049°N, 121.8058°W)
Time: 12:52:58
(UTC+00:00)

Cosmos 1934 Rocket - Pass Details

Date: 11 February 2026
Orbit: 938 x 997 km, 83.0° (Epoch: 17 March)

Event Time Altitude Azimuth Distance (km) Brightness Sun altitude
Rises 13:21:38 0° 196° (SSW) 3,589 6.8 -20.2°
Reaches altitude 10° 13:24:08 10° 200° (SSW) 2,654 6.1 -19.7°
Maximum altitude 13:30:05 58° 279° (W) 1,097 3.9 -18.5°
Drops below altitude 10° 13:36:11 10° 359° (N) 2,705 6.3 -17.3°
Sets 13:38:46 0° 3° (N) 3,664 7.0 -16.8°
